Location: Caoba
(9.7667°N, 67.4833°W)
Time: 20:18:14
(UTC+00:00)

GOES 2 Rocket - Pass Details

Date: 11 December 2024
Orbit: 569 x 1662 km, 28.4° (Epoch: 14 January)

Event Time Altitude Azimuth Distance (km) Brightness Sun altitude
Rises 01:15:59 0° 250° (WSW) 4,623 8.3 -43.4°
Reaches altitude 10° 01:19:26 10° 254° (WSW) 3,505 7.5 -44.2°
Enters shadow 01:24:25 34° 267° (W) 1,975 5.8 -45.3°
